Regional Weather Roundup
Issued by NWS

Home | Current Version | Previous Version | Text Only | Print | Product List | Glossary On
Versions: 1 2 3 4 5 6 7 8 9 10 11 12 13 14 15 16 17 18 19 20 21 22 23 24 25 26 27 28 29 30 31 32 33 34 35 36 37 38 39 40 41 42 43 44 45 46 47 48 49 50
000
ASUS45 KBOI 161010
RWRID
WEATHER ROUNDUP FOR IDAHO
NATIONAL WEATHER SERVICE BOISE ID
400 AM MDT TUE SEP 16 2014

NOTE: "FAIR" INDICATES FEW OR NO CLOUDS BELOW 12000 FEET
WITH NO SIGNIFICANT WEATHER AND/OR OBSTRUCTIONS TO VISIBILITY

IDZ012-014-161100-
SOUTHWEST IDAHO


CITY           SKY/WX    TMP DP  RH WIND       PRES   REMARKS
BOISE          MOCLDY    77  45  32 E5        29.94S
CALDWELL       MOCLDY    63  45  51 SE6       29.95R
MOUNTAIN HOME  CLOUDY    69  38  33 W6        29.97R
$$

IDZ016-017-161100-
SOUTHCENTRAL IDAHO


CITY           SKY/WX    TMP DP  RH WIND       PRES   REMARKS
BURLEY         MOCLDY    55  44  66 N5        30.04F
JEROME         MOCLDY    60  38  43 NE15      30.04F
TWIN FALLS     MOCLDY    66  35  31 SW3       30.05F
$$

IDZ019>023-161100-
SOUTHEAST IDAHO


CITY           SKY/WX    TMP DP  RH WIND       PRES   REMARKS
IDAHO FALLS    PTCLDY    49  39  68 CALM      30.14R
POCATELLO      CLEAR     53  37  54 NE8       30.10S
REXBURG        PTCLDY    47  38  71 CALM      30.15R
$$

IDZ006-010-011-018-031-032-161100-
CENTRAL IDAHO MOUNTAINS


CITY           SKY/WX    TMP DP  RH WIND       PRES   REMARKS
MCCALL         MOCLDY    56  39  53 NE5       30.09F
HAILEY         MOCLDY    59  36  41 NW13      30.19F
STANLEY          N/A     46  32  58 CALM      30.24F
SALMON         CLOUDY    48  37  66 CALM      30.10S
CHALLIS        CLOUDY    53  37  54 W3        30.15S
$$

IDZ002-004-006-007-026-161100-
NORTHERN IDAHO


CITY           SKY/WX    TMP DP  RH WIND       PRES   REMARKS
LEWISTON       PTCLDY    63  37  38 CALM      29.87S
LOWELL           N/A     50  47  89 N5        29.99S
COEUR D`ALENE  PTCLDY    54  41  62 E10       29.95S
MULLAN PASS    CLEAR     62  26  25 S6        30.13F
$$



USA.gov is the U.S. government's official web portal to all federal, state and local government web resources and services.